Time,TemperatureF,DewpointF,PressureIn,WindDirection,WindDirectionDegrees,WindSpeedMPH,WindSpeedGustMPH,Humidity,HourlyPrecipIn,Conditions,Clouds,dailyrainin,SoftwareType,DateUTC
2013-06-13 00:00:00,84.5,71.4,29.62,South,180,1.0,11.0,65,0.00,,---,0.00,VWS V14.01,2013-06-13 05:00:00,
2013-06-13 00:30:00,83.9,71.3,29.62,South,180,1.0,8.0,66,0.00,,---,0.00,VWS V14.01,2013-06-13 05:30:00,
2013-06-13 01:00:00,83.6,71.5,29.63,South,180,1.0,6.0,67,0.00,,---,0.00,VWS V14.01,2013-06-13 06:00:00,
2013-06-13 01:55:00,82.2,72.3,29.64,South,190,1.0,1.0,72,0.00,,---,0.00,VWS V14.01,2013-06-13 06:55:00,
2013-06-13 02:00:00,82.3,71.5,29.64,SW,221,0.0,3.0,70,0.00,,---,0.00,VWS V14.01,2013-06-13 07:00:00,
2013-06-13 02:05:00,82.2,71.4,29.64,WSW,254,1.0,3.0,70,0.00,,---,0.00,VWS V14.01,2013-06-13 07:05:00,
2013-06-13 02:10:00,82.0,70.4,29.64,SSE,157,0.0,9.0,68,0.00,,---,0.00,VWS V14.01,2013-06-13 07:10:00,
2013-06-13 02:15:00,82.0,70.0,29.65,WSW,245,1.0,9.0,67,0.00,,---,0.00,VWS V14.01,2013-06-13 07:15:00,
2013-06-13 02:20:00,81.8,69.3,29.65,SW,219,0.0,9.0,66,0.00,,---,0.00,VWS V14.01,2013-06-13 07:20:00,
2013-06-13 02:25:00,81.6,69.6,29.65,ESE,113,1.0,9.0,67,0.00,,---,0.00,VWS V14.01,2013-06-13 07:25:00,
2013-06-13 02:30:00,81.1,68.7,29.65,WNW,292,0.0,2.0,66,0.00,,---,0.00,VWS V14.01,2013-06-13 07:30:00,
2013-06-13 02:35:00,80.6,67.8,29.66,SW,217,0.0,3.0,65,0.00,,---,0.00,VWS V14.01,2013-06-13 07:35:00,
2013-06-13 02:40:00,80.0,67.2,29.66,WSW,240,0.0,3.0,65,0.00,,---,0.00,VWS V14.01,2013-06-13 07:40:00,
2013-06-13 02:45:00,79.6,66.8,29.66,WSW,237,1.0,3.0,65,0.00,,---,0.00,VWS V14.01,2013-06-13 07:45:00,
2013-06-13 02:50:00,79.2,66.9,29.65,SW,223,0.0,7.0,66,0.00,,---,0.00,VWS V14.01,2013-06-13 07:50:00,
2013-06-13 02:55:00,79.0,66.7,29.66,SE,135,2.0,7.0,66,0.00,,---,0.00,VWS V14.01,2013-06-13 07:55:00,
2013-06-13 03:00:00,78.7,66.8,29.66,SW,227,0.0,0.0,67,0.00,,---,0.00,VWS V14.01,2013-06-13 08:00:00,
2013-06-13 03:05:00,78.5,67.1,29.65,South,187,0.0,4.0,68,0.00,,---,0.00,VWS V14.01,2013-06-13 08:05:00,
2013-06-13 03:10:00,78.4,67.4,29.65,SSW,209,0.0,5.0,69,0.00,,---,0.00,VWS V14.01,2013-06-13 08:10:00,
2013-06-13 03:15:00,78.2,67.6,29.65,South,188,1.0,5.0,70,0.00,,---,0.00,VWS V14.01,2013-06-13 08:15:00,
2013-06-13 03:20:00,78.1,67.5,29.65,SSE,164,0.0,5.0,70,0.00,,---,0.00,VWS V14.01,2013-06-13 08:20:00,
2013-06-13 03:25:00,78.0,67.4,29.65,SSW,203,0.0,5.0,70,0.00,,---,0.00,VWS V14.01,2013-06-13 08:25:00,
2013-06-13 03:30:00,78.1,67.5,29.65,SSW,197,1.0,2.0,70,0.00,,---,0.00,VWS V14.01,2013-06-13 08:30:00,
2013-06-13 03:35:00,78.1,66.7,29.66,SW,224,3.0,7.0,68,0.00,,---,0.00,VWS V14.01,2013-06-13 08:35:00,
2013-06-13 03:40:00,78.0,65.7,29.66,WSW,250,1.0,9.0,66,0.00,,---,0.00,VWS V14.01,2013-06-13 08:40:00,
2013-06-13 03:45:00,77.9,65.6,29.66,SSW,194,0.0,10.0,66,0.00,,---,0.00,VWS V14.01,2013-06-13 08:45:00,
2013-06-13 03:50:00,77.7,65.4,29.66,SSW,200,2.0,10.0,66,0.00,,---,0.00,VWS V14.01,2013-06-13 08:50:00,
2013-06-13 03:55:00,77.5,65.3,29.66,SSW,208,2.0,15.0,66,0.00,,---,0.00,VWS V14.01,2013-06-13 08:55:00,
2013-06-13 04:00:00,77.2,65.0,29.67,SSE,147,0.0,1.0,66,0.00,,---,0.00,VWS V14.01,2013-06-13 09:00:00,
2013-06-13 04:05:00,76.9,65.1,29.67,SW,215,0.0,7.0,67,0.00,,---,0.00,VWS V14.01,2013-06-13 09:05:00,
2013-06-13 04:10:00,76.6,64.8,29.67,SSW,194,1.0,7.0,67,0.00,,---,0.00,VWS V14.01,2013-06-13 09:10:00,
2013-06-13 04:15:00,76.1,64.8,29.67,South,190,0.0,7.0,68,0.00,,---,0.00,VWS V14.01,2013-06-13 09:15:00,
2013-06-13 04:20:00,75.7,64.8,29.68,SW,219,0.0,7.0,69,0.00,,---,0.00,VWS V14.01,2013-06-13 09:20:00,
2013-06-13 04:25:00,75.4,64.5,29.68,SW,217,0.0,7.0,69,0.00,,---,0.00,VWS V14.01,2013-06-13 09:25:00,
2013-06-13 04:30:00,75.1,64.2,29.68,SW,235,0.0,5.0,69,0.00,,---,0.00,VWS V14.01,2013-06-13 09:30:00,
2013-06-13 04:35:00,74.8,64.0,29.68,SW,221,1.0,5.0,69,0.00,,---,0.00,VWS V14.01,2013-06-13 09:35:00,
2013-06-13 04:40:00,74.5,64.1,29.68,WSW,237,3.0,5.0,70,0.00,,---,0.00,VWS V14.01,2013-06-13 09:40:00,
2013-06-13 04:45:00,74.2,63.8,29.68,SW,233,2.0,10.0,70,0.00,,---,0.00,VWS V14.01,2013-06-13 09:45:00,
2013-06-13 04:50:00,74.1,62.9,29.68,SSW,198,3.0,10.0,68,0.00,,---,0.00,VWS V14.01,2013-06-13 09:50:00,
2013-06-13 04:55:00,74.0,62.8,29.68,SW,223,0.0,10.0,68,0.00,,---,0.00,VWS V14.01,2013-06-13 09:55:00,
2013-06-13 05:00:00,73.9,62.7,29.69,WNW,302,1.0,4.0,68,0.00,,---,0.00,VWS V14.01,2013-06-13 10:00:00,
2013-06-13 05:05:00,73.6,62.4,29.69,ENE,67,0.0,5.0,68,0.00,,---,0.00,VWS V14.01,2013-06-13 10:05:00,
2013-06-13 05:10:00,73.4,62.6,29.69,West,265,0.0,7.0,69,0.00,,---,0.00,VWS V14.01,2013-06-13 10:10:00,
2013-06-13 05:15:00,73.2,62.4,29.69,West,263,0.0,9.0,69,0.00,,---,0.00,VWS V14.01,2013-06-13 10:15:00,
2013-06-13 05:20:00,73.0,62.7,29.69,SW,215,1.0,9.0,70,0.00,,---,0.00,VWS V14.01,2013-06-13 10:20:00,
2013-06-13 05:25:00,72.7,62.4,29.70,SW,214,0.0,9.0,70,0.00,,---,0.00,VWS V14.01,2013-06-13 10:25:00,
2013-06-13 05:30:00,72.4,62.5,29.71,SSW,205,7.0,8.0,71,0.00,,---,0.00,VWS V14.01,2013-06-13 10:30:00,
2013-06-13 05:35:00,72.2,62.7,29.71,WSW,243,0.0,8.0,72,0.00,,---,0.00,VWS V14.01,2013-06-13 10:35:00,
2013-06-13 05:40:00,72.0,62.5,29.71,SW,214,0.0,8.0,72,0.00,,---,0.00,VWS V14.01,2013-06-13 10:40:00,
2013-06-13 05:45:00,71.9,62.4,29.71,West,263,1.0,10.0,72,0.00,,---,0.00,VWS V14.01,2013-06-13 10:45:00,
2013-06-13 05:50:00,71.9,62.4,29.72,SW,226,2.0,10.0,72,0.00,,---,0.00,VWS V14.01,2013-06-13 10:50:00,
2013-06-13 05:55:00,71.9,62.8,29.72,WSW,252,0.0,10.0,73,0.00,,---,0.00,VWS V14.01,2013-06-13 10:55:00,
2013-06-13 06:00:00,71.9,62.4,29.72,WNW,293,1.0,2.0,72,0.00,,---,0.00,VWS V14.01,2013-06-13 11:00:00,
2013-06-13 06:05:00,71.7,62.6,29.73,SSW,213,2.0,10.0,73,0.00,,---,0.00,VWS V14.01,2013-06-13 11:05:00,
2013-06-13 06:10:00,71.4,62.7,29.73,SW,231,0.0,10.0,74,0.00,,---,0.00,VWS V14.01,2013-06-13 11:10:00,
2013-06-13 06:15:00,71.2,62.9,29.73,SW,223,0.0,10.0,75,0.00,,---,0.00,VWS V14.01,2013-06-13 11:15:00,
2013-06-13 06:20:00,71.0,62.7,29.74,WSW,240,0.0,10.0,75,0.00,,---,0.00,VWS V14.01,2013-06-13 11:20:00,
2013-06-13 06:25:00,71.0,62.7,29.74,SW,217,1.0,10.0,75,0.00,,---,0.00,VWS V14.01,2013-06-13 11:25:00,
2013-06-13 06:30:00,71.0,63.1,29.74,West,281,0.0,2.0,76,0.00,,---,0.00,VWS V14.01,2013-06-13 11:30:00,
2013-06-13 06:35:00,70.7,62.8,29.75,SW,235,1.0,9.0,76,0.00,,---,0.00,VWS V14.01,2013-06-13 11:35:00,
2013-06-13 06:40:00,70.5,62.6,29.75,SW,223,3.0,9.0,76,0.00,,---,0.00,VWS V14.01,2013-06-13 11:40:00,
2013-06-13 06:45:00,70.3,62.4,29.75,WSW,240,0.0,9.0,76,0.00,,---,0.00,VWS V14.01,2013-06-13 11:45:00,
2013-06-13 06:50:00,70.3,62.8,29.75,SW,218,0.0,9.0,77,0.00,,---,0.00,VWS V14.01,2013-06-13 11:50:00,
2013-06-13 06:55:00,70.2,62.7,29.75,SSW,198,1.0,9.0,77,0.00,,---,0.00,VWS V14.01,2013-06-13 11:55:00,
2013-06-13 07:00:00,70.2,63.0,29.75,WSW,252,0.0,0.0,78,0.00,,---,0.00,VWS V14.01,2013-06-13 12:00:00,
2013-06-13 07:05:00,70.2,63.0,29.75,SW,222,0.0,2.0,78,0.00,,---,0.00,VWS V14.01,2013-06-13 12:05:00,
2013-06-13 07:10:00,70.1,62.6,29.76,SW,217,1.0,5.0,77,0.00,,---,0.00,VWS V14.01,2013-06-13 12:10:00,
2013-06-13 07:15:00,69.9,62.7,29.76,South,188,0.0,5.0,78,0.00,,---,0.00,VWS V14.01,2013-06-13 12:15:00,
2013-06-13 07:20:00,69.9,62.7,29.76,SSW,196,0.0,5.0,78,0.00,,---,0.00,VWS V14.01,2013-06-13 12:20:00,
2013-06-13 07:25:00,69.9,62.7,29.76,SSW,202,0.0,5.0,78,0.00,,---,0.00,VWS V14.01,2013-06-13 12:25:00,
2013-06-13 07:30:00,70.0,62.8,29.76,SSW,207,0.0,2.0,78,0.00,,---,0.00,VWS V14.01,2013-06-13 12:30:00,
2013-06-13 07:35:00,69.9,63.1,29.77,SSW,213,0.0,3.0,79,0.00,,---,0.00,VWS V14.01,2013-06-13 12:35:00,
2013-06-13 07:40:00,70.0,62.8,29.77,SW,225,0.0,8.0,78,0.00,,---,0.00,VWS V14.01,2013-06-13 12:40:00,
2013-06-13 07:45:00,69.9,63.1,29.77,SSW,196,0.0,8.0,79,0.00,,---,0.00,VWS V14.01,2013-06-13 12:45:00,
2013-06-13 07:50:00,69.9,63.1,29.77,SW,236,0.0,8.0,79,0.00,,---,0.00,VWS V14.01,2013-06-13 12:50:00,
2013-06-13 07:55:00,70.0,63.2,29.78,SSE,166,0.0,8.0,79,0.00,,---,0.00,VWS V14.01,2013-06-13 12:55:00,
2013-06-13 08:00:00,69.9,63.1,29.78,SW,225,0.0,0.0,79,0.00,,---,0.00,VWS V14.01,2013-06-13 13:00:00,
2013-06-13 08:05:00,69.8,63.0,29.78,SSW,198,0.0,2.0,79,0.00,,---,0.00,VWS V14.01,2013-06-13 13:05:00,
2013-06-13 08:10:00,69.8,63.0,29.78,SSW,203,0.0,2.0,79,0.00,,---,0.00,VWS V14.01,2013-06-13 13:10:00,
2013-06-13 08:15:00,69.9,63.1,29.79,SE,145,0.0,5.0,79,0.00,,---,0.00,VWS V14.01,2013-06-13 13:15:00,
2013-06-13 08:20:00,70.0,63.5,29.79,South,188,0.0,5.0,80,0.00,,---,0.00,VWS V14.01,2013-06-13 13:20:00,
2013-06-13 08:25:00,69.8,63.7,29.79,South,186,3.0,5.0,81,0.00,,---,0.00,VWS V14.01,2013-06-13 13:25:00,
2013-06-13 08:30:00,69.7,63.6,29.79,SW,216,0.0,4.0,81,0.00,,---,0.00,VWS V14.01,2013-06-13 13:30:00,
2013-06-13 08:35:00,69.8,63.7,29.80,SW,223,0.0,7.0,81,0.00,,---,0.00,VWS V14.01,2013-06-13 13:35:00,
2013-06-13 08:40:00,69.9,63.8,29.80,SSW,196,0.0,7.0,81,0.00,,---,0.00,VWS V14.01,2013-06-13 13:40:00,
2013-06-13 08:45:00,70.0,63.9,29.80,SSW,196,0.0,7.0,81,0.00,,---,0.00,VWS V14.01,2013-06-13 13:45:00,
2013-06-13 08:50:00,70.1,64.0,29.79,SSW,213,0.0,7.0,81,0.00,,---,0.00,VWS V14.01,2013-06-13 13:50:00,
2013-06-13 08:55:00,70.2,64.1,29.80,SE,138,0.0,7.0,81,0.00,,---,0.00,VWS V14.01,2013-06-13 13:55:00,
2013-06-13 09:00:00,70.3,63.8,29.80,SSE,148,0.0,2.0,80,0.00,,---,0.00,VWS V14.01,2013-06-13 14:00:00,
2013-06-13 09:05:00,70.3,64.2,29.80,SSE,157,0.0,2.0,81,0.00,,---,0.00,VWS V14.01,2013-06-13 14:05:00,
2013-06-13 09:10:00,70.4,64.3,29.80,South,181,0.0,2.0,81,0.00,,---,0.00,VWS V14.01,2013-06-13 14:10:00,
2013-06-13 09:15:00,70.6,64.1,29.80,SW,221,0.0,3.0,80,0.00,,---,0.00,VWS V14.01,2013-06-13 14:15:00,
2013-06-13 09:20:00,70.6,64.1,29.80,South,183,0.0,3.0,80,0.00,,---,0.00,VWS V14.01,2013-06-13 14:20:00,
2013-06-13 09:25:00,70.7,64.6,29.80,SSW,200,0.0,4.0,81,0.00,,---,0.00,VWS V14.01,2013-06-13 14:25:00,
2013-06-13 09:30:00,70.9,64.4,29.80,SSE,167,0.0,1.0,80,0.00,,---,0.00,VWS V14.01,2013-06-13 14:30:00,
2013-06-13 09:35:00,71.3,64.8,29.81,SW,220,0.0,5.0,80,0.00,,---,0.00,VWS V14.01,2013-06-13 14:35:00,
2013-06-13 09:40:00,71.6,64.8,29.81,SW,223,0.0,5.0,79,0.00,,---,0.00,VWS V14.01,2013-06-13 14:40:00,
2013-06-13 09:45:00,71.9,65.4,29.81,SW,217,0.0,5.0,80,0.00,,---,0.00,VWS V14.01,2013-06-13 14:45:00,
2013-06-13 09:50:00,72.2,65.3,29.81,SE,145,2.0,5.0,79,0.00,,---,0.00,VWS V14.01,2013-06-13 14:50:00,
2013-06-13 09:55:00,72.1,65.6,29.81,SW,226,0.0,5.0,80,0.00,,---,0.00,VWS V14.01,2013-06-13 14:55:00,
2013-06-13 10:00:00,72.1,65.6,29.81,South,186,0.0,2.0,80,0.00,,---,0.00,VWS V14.01,2013-06-13 15:00:00,
2013-06-13 10:05:00,72.2,65.7,29.81,SW,217,0.0,2.0,80,0.00,,---,0.00,VWS V14.01,2013-06-13 15:05:00,
2013-06-13 10:10:00,72.2,65.7,29.82,West,267,0.0,5.0,80,0.00,,---,0.00,VWS V14.01,2013-06-13 15:10:00,
2013-06-13 10:15:00,72.4,65.9,29.81,East,82,0.0,5.0,80,0.00,,---,0.00,VWS V14.01,2013-06-13 15:15:00,
2013-06-13 10:20:00,72.5,66.0,29.81,WSW,253,0.0,5.0,80,0.00,,---,0.00,VWS V14.01,2013-06-13 15:20:00,
2013-06-13 10:25:00,72.8,66.3,29.82,WSW,258,0.0,5.0,80,0.00,,---,0.00,VWS V14.01,2013-06-13 15:25:00,
2013-06-13 10:30:00,72.3,66.2,29.82,SW,219,0.0,1.0,81,0.00,,---,0.00,VWS V14.01,2013-06-13 15:30:00,
2013-06-13 10:35:00,72.0,65.9,29.83,WSW,248,0.0,1.0,81,0.00,,---,0.00,VWS V14.01,2013-06-13 15:35:00,
2013-06-13 10:40:00,71.6,66.2,29.83,SSW,213,0.0,1.0,83,0.00,,---,0.00,VWS V14.01,2013-06-13 15:40:00,
2013-06-13 10:45:00,71.2,65.8,29.83,WSW,244,0.0,2.0,83,0.00,,---,0.00,VWS V14.01,2013-06-13 15:45:00,
2013-06-13 10:50:00,71.0,65.9,29.84,SSE,158,0.0,2.0,84,0.00,,---,0.00,VWS V14.01,2013-06-13 15:50:00,
2013-06-13 10:55:00,70.7,66.0,29.84,SSE,159,0.0,2.0,85,0.00,,---,0.00,VWS V14.01,2013-06-13 15:55:00,
2013-06-13 11:00:00,70.5,66.1,29.84,SSE,159,0.0,0.0,86,0.00,,---,0.00,VWS V14.01,2013-06-13 16:00:00,
2013-06-13 11:05:00,70.4,66.3,29.84,SSE,159,0.0,0.0,87,0.00,,---,0.00,VWS V14.01,2013-06-13 16:05:00,
2013-06-13 11:10:00,70.3,66.6,29.84,SSE,159,0.0,0.0,88,0.00,,---,0.00,VWS V14.01,2013-06-13 16:10:00,
2013-06-13 11:15:00,70.3,66.6,29.84,SSE,159,1.0,1.0,88,0.00,,---,0.00,VWS V14.01,2013-06-13 16:15:00,
2013-06-13 11:20:00,70.4,66.3,29.84,SW,222,0.0,2.0,87,0.00,,---,0.00,VWS V14.01,2013-06-13 16:20:00,
2013-06-13 11:25:00,70.5,66.8,29.84,SSW,211,0.0,2.0,88,0.00,,---,0.00,VWS V14.01,2013-06-13 16:25:00,
2013-06-13 11:30:00,70.6,67.2,29.85,SSW,209,0.0,0.0,89,0.00,,---,0.00,VWS V14.01,2013-06-13 16:30:00,
2013-06-13 11:35:00,71.5,67.4,29.84,SSW,209,0.0,0.0,87,0.00,,---,0.00,VWS V14.01,2013-06-13 16:35:00,
2013-06-13 11:40:00,73.2,68.4,29.84,South,191,0.0,1.0,85,0.00,,---,0.00,VWS V14.01,2013-06-13 16:40:00,
2013-06-13 11:45:00,74.4,68.2,29.84,SSW,206,0.0,5.0,81,0.00,,---,0.00,VWS V14.01,2013-06-13 16:45:00,
2013-06-13 11:50:00,74.7,68.1,29.84,SSW,210,0.0,5.0,80,0.00,,---,0.00,VWS V14.01,2013-06-13 16:50:00,
2013-06-13 11:55:00,74.4,67.1,29.84,SW,217,0.0,5.0,78,0.00,,---,0.00,VWS V14.01,2013-06-13 16:55:00,
2013-06-13 12:00:00,74.1,67.2,29.84,SW,220,0.0,0.0,79,0.00,,---,0.00,VWS V14.01,2013-06-13 17:00:00,
2013-06-13 12:05:00,74.2,67.6,29.84,SW,221,0.0,0.0,80,0.00,,---,0.00,VWS V14.01,2013-06-13 17:05:00,
2013-06-13 12:10:00,73.9,67.3,29.84,SSW,213,2.0,2.0,80,0.00,,---,0.00,VWS V14.01,2013-06-13 17:10:00,
2013-06-13 12:15:00,74.2,67.6,29.84,SW,236,0.0,2.0,80,0.00,,---,0.00,VWS V14.01,2013-06-13 17:15:00,
2013-06-13 12:20:00,75.6,68.3,29.84,SSW,194,0.0,2.0,78,0.00,,---,0.00,VWS V14.01,2013-06-13 17:20:00,
2013-06-13 12:25:00,76.9,69.2,29.84,West,259,1.0,4.0,77,0.00,,---,0.00,VWS V14.01,2013-06-13 17:25:00,
2013-06-13 12:30:00,76.3,67.4,29.84,West,267,0.0,3.0,74,0.00,,---,0.00,VWS V14.01,2013-06-13 17:30:00,
2013-06-13 12:35:00,77.1,68.6,29.84,ESE,103,0.0,3.0,75,0.00,,---,0.00,VWS V14.01,2013-06-13 17:35:00,
2013-06-13 12:40:00,77.0,68.5,29.84,SE,145,0.0,3.0,75,0.00,,---,0.00,VWS V14.01,2013-06-13 17:40:00,
2013-06-13 12:45:00,76.6,68.5,29.85,SE,145,0.0,3.0,76,0.00,,---,0.00,VWS V14.01,2013-06-13 17:45:00,
2013-06-13 12:50:00,76.7,68.6,29.85,South,172,0.0,3.0,76,0.00,,---,0.00,VWS V14.01,2013-06-13 17:50:00,
2013-06-13 12:55:00,77.1,68.2,29.85,SSE,165,0.0,3.0,74,0.00,,---,0.00,VWS V14.01,2013-06-13 17:55:00,
2013-06-13 13:00:00,76.8,68.7,29.85,SW,220,0.0,0.0,76,0.00,,---,0.00,VWS V14.01,2013-06-13 18:00:00,
2013-06-13 13:05:00,76.5,68.0,29.85,SW,223,0.0,1.0,75,0.00,,---,0.00,VWS V14.01,2013-06-13 18:05:00,
2013-06-13 13:10:00,76.6,68.1,29.85,South,181,0.0,1.0,75,0.00,,---,0.00,VWS V14.01,2013-06-13 18:10:00,
2013-06-13 13:14:00,78.2,68.4,29.85,WSW,257,0.0,2.0,72,0.00,,---,0.00,VWS V14.01,2013-06-13 18:14:00,
2013-06-13 13:19:00,78.9,68.7,29.85,WSW,255,1.0,2.0,71,0.00,,---,0.00,VWS V14.01,2013-06-13 18:19:00,
2013-06-13 13:24:00,78.5,68.3,29.85,SSW,195,1.0,4.0,71,0.00,,---,0.00,VWS V14.01,2013-06-13 18:24:00,
2013-06-13 13:29:00,77.8,67.7,29.85,South,180,0.0,0.0,71,0.00,,---,0.00,VWS V14.01,2013-06-13 18:29:00,
2013-06-13 13:34:00,78.5,68.3,29.85,SSW,202,0.0,2.0,71,0.00,,---,0.00,VWS V14.01,2013-06-13 18:34:00,
2013-06-13 13:39:00,79.7,68.6,29.85,WSW,246,0.0,2.0,69,0.00,,---,0.00,VWS V14.01,2013-06-13 18:39:00,
2013-06-13 13:44:00,80.7,68.7,29.85,WSW,246,0.0,2.0,67,0.00,,---,0.00,VWS V14.01,2013-06-13 18:44:00,
2013-06-13 13:49:00,80.4,67.6,29.85,SW,222,0.0,2.0,65,0.00,,---,0.00,VWS V14.01,2013-06-13 18:49:00,
2013-06-13 13:54:00,78.8,67.8,29.86,West,259,0.0,2.0,69,0.00,,---,0.00,VWS V14.01,2013-06-13 18:54:00,
2013-06-13 13:59:00,79.8,67.9,29.86,WSW,253,0.0,0.0,67,0.00,,---,0.00,VWS V14.01,2013-06-13 18:59:00,
2013-06-13 14:04:00,80.5,67.2,29.85,West,265,0.0,2.0,64,0.00,,---,0.00,VWS V14.01,2013-06-13 19:04:00,
2013-06-13 14:09:00,80.3,66.6,29.85,WSW,256,0.0,2.0,63,0.00,,---,0.00,VWS V14.01,2013-06-13 19:09:00,
2013-06-13 14:14:00,80.5,67.7,29.86,WSW,250,0.0,2.0,65,0.00,,---,0.00,VWS V14.01,2013-06-13 19:14:00,
2013-06-13 14:19:00,81.8,68.0,29.85,SW,228,0.0,2.0,63,0.00,,---,0.00,VWS V14.01,2013-06-13 19:19:00,
2013-06-13 14:24:00,80.5,68.1,29.85,SW,228,0.0,2.0,66,0.00,,---,0.00,VWS V14.01,2013-06-13 19:24:00,
2013-06-13 14:29:00,80.9,68.0,29.85,WSW,247,0.0,1.0,65,0.00,,---,0.00,VWS V14.01,2013-06-13 19:29:00,
2013-06-13 14:34:00,81.1,67.3,29.85,SSW,207,0.0,2.0,63,0.00,,---,0.00,VWS V14.01,2013-06-13 19:34:00,
2013-06-13 14:39:00,82.1,68.3,29.85,SSW,200,0.0,2.0,63,0.00,,---,0.00,VWS V14.01,2013-06-13 19:39:00,
2013-06-13 14:44:00,80.2,66.9,29.85,SSW,200,0.0,2.0,64,0.00,,---,0.00,VWS V14.01,2013-06-13 19:44:00,
2013-06-13 14:49:00,80.7,69.2,29.85,WSW,252,1.0,2.0,68,0.00,,---,0.00,VWS V14.01,2013-06-13 19:49:00,
2013-06-13 14:54:00,81.8,68.0,29.85,SSW,197,0.0,3.0,63,0.00,,---,0.00,VWS V14.01,2013-06-13 19:54:00,
2013-06-13 14:59:00,82.9,68.6,29.85,WSW,247,0.0,2.0,62,0.00,,---,0.00,VWS V14.01,2013-06-13 19:59:00,
2013-06-13 15:04:00,81.5,67.7,29.85,WSW,248,0.0,2.0,63,0.00,,---,0.00,VWS V14.01,2013-06-13 20:04:00,
2013-06-13 15:09:00,81.6,69.6,29.84,WSW,248,0.0,2.0,67,0.00,,---,0.00,VWS V14.01,2013-06-13 20:09:00,
2013-06-13 15:14:00,80.5,67.7,29.84,WSW,248,0.0,2.0,65,0.00,,---,0.00,VWS V14.01,2013-06-13 20:14:00,
2013-06-13 15:19:00,81.1,67.8,29.84,SSW,211,0.0,3.0,64,0.00,,---,0.00,VWS V14.01,2013-06-13 20:19:00,
2013-06-13 15:24:00,81.2,68.3,29.84,WSW,255,0.0,3.0,65,0.00,,---,0.00,VWS V14.01,2013-06-13 20:24:00,
2013-06-13 15:29:00,82.3,68.5,29.84,West,259,0.0,0.0,63,0.00,,---,0.00,VWS V14.01,2013-06-13 20:29:00,
2013-06-13 15:34:00,81.9,67.1,29.84,WSW,257,0.0,1.0,61,0.00,,---,0.00,VWS V14.01,2013-06-13 20:34:00,
2013-06-13 15:39:00,81.0,67.7,29.84,SSE,155,0.0,3.0,64,0.00,,---,0.00,VWS V14.01,2013-06-13 20:39:00,
2013-06-13 15:44:00,82.9,67.6,29.83,SSE,154,0.0,3.0,60,0.00,,---,0.00,VWS V14.01,2013-06-13 20:44:00,
2013-06-13 15:49:00,83.4,68.1,29.83,West,263,1.0,5.0,60,0.00,,---,0.00,VWS V14.01,2013-06-13 20:49:00,
2013-06-13 15:54:00,83.4,67.6,29.83,West,263,1.0,5.0,59,0.00,,---,0.00,VWS V14.01,2013-06-13 20:54:00,
2013-06-13 15:59:00,82.7,68.8,29.83,West,263,0.0,0.0,63,0.00,,---,0.00,VWS V14.01,2013-06-13 20:59:00,
2013-06-13 16:04:00,83.7,68.3,29.83,SSW,192,0.0,2.0,60,0.00,,---,0.00,VWS V14.01,2013-06-13 21:04:00,
2013-06-13 16:09:00,83.2,67.9,29.83,SW,221,0.0,4.0,60,0.00,,---,0.00,VWS V14.01,2013-06-13 21:09:00,
2013-06-13 16:14:00,83.0,67.7,29.83,SW,221,0.0,4.0,60,0.00,,---,0.00,VWS V14.01,2013-06-13 21:14:00,
2013-06-13 16:19:00,82.5,67.2,29.83,SW,220,0.0,4.0,60,0.00,,---,0.00,VWS V14.01,2013-06-13 21:19:00,
2013-06-13 16:24:00,83.4,67.6,29.83,SSW,212,0.0,4.0,59,0.00,,---,0.00,VWS V14.01,2013-06-13 21:24:00,
2013-06-13 16:29:00,84.2,67.8,29.83,West,259,0.0,1.0,58,0.00,,---,0.00,VWS V14.01,2013-06-13 21:29:00,
2013-06-13 16:34:00,84.2,68.8,29.83,WSW,239,0.0,1.0,60,0.00,,---,0.00,VWS V14.01,2013-06-13 21:34:00,
2013-06-13 16:39:00,83.8,67.5,29.83,WSW,237,1.0,4.0,58,0.00,,---,0.00,VWS V14.01,2013-06-13 21:39:00,
2013-06-13 16:44:00,83.9,67.6,29.83,South,171,0.0,4.0,58,0.00,,---,0.00,VWS V14.01,2013-06-13 21:44:00,
2013-06-13 16:49:00,84.0,67.7,29.83,South,175,0.0,4.0,58,0.00,,---,0.00,VWS V14.01,2013-06-13 21:49:00,
2013-06-13 16:54:00,83.0,66.7,29.83,SSW,205,0.0,4.0,58,0.00,,---,0.00,VWS V14.01,2013-06-13 21:54:00,
2013-06-13 16:59:00,81.5,66.8,29.83,South,182,0.0,0.0,61,0.00,,---,0.00,VWS V14.01,2013-06-13 21:59:00,
2013-06-13 17:04:00,82.5,66.7,29.83,SSW,193,0.0,1.0,59,0.00,,---,0.00,VWS V14.01,2013-06-13 22:04:00,
2013-06-13 17:09:00,83.9,68.1,29.83,South,175,0.0,2.0,59,0.00,,---,0.00,VWS V14.01,2013-06-13 22:09:00,
2013-06-13 17:14:00,83.7,67.4,29.83,South,182,0.0,2.0,58,0.00,,---,0.00,VWS V14.01,2013-06-13 22:14:00,
2013-06-13 17:19:00,84.0,68.1,29.83,South,182,0.0,2.0,59,0.00,,---,0.00,VWS V14.01,2013-06-13 22:19:00,
2013-06-13 17:24:00,84.1,67.2,29.83,South,185,0.0,3.0,57,0.00,,---,0.00,VWS V14.01,2013-06-13 22:24:00,
2013-06-13 17:29:00,84.2,68.3,29.83,SSW,194,0.0,0.0,59,0.00,,---,0.00,VWS V14.01,2013-06-13 22:29:00,
2013-06-13 17:34:00,82.8,67.0,29.83,SSW,194,0.0,0.0,59,0.00,,---,0.00,VWS V14.01,2013-06-13 22:34:00,
2013-06-13 17:39:00,82.6,68.3,29.83,SSW,194,0.0,0.0,62,0.00,,---,0.00,VWS V14.01,2013-06-13 22:39:00,
2013-06-13 17:44:00,81.1,68.2,29.83,SSW,194,0.0,0.0,65,0.00,,---,0.00,VWS V14.01,2013-06-13 22:44:00,
2013-06-13 17:49:00,80.1,69.0,29.84,SSW,194,0.0,0.0,69,0.00,,---,0.00,VWS V14.01,2013-06-13 22:49:00,
2013-06-13 17:54:00,80.6,67.8,29.84,SSW,194,0.0,0.0,65,0.00,,---,0.00,VWS V14.01,2013-06-13 22:54:00,
2013-06-13 17:59:00,79.5,68.9,29.84,SSW,194,0.0,0.0,70,0.00,,---,0.00,VWS V14.01,2013-06-13 22:59:00,
2013-06-13 18:04:00,78.2,68.8,29.84,SSW,194,0.0,0.0,73,0.00,,---,0.00,VWS V14.01,2013-06-13 23:04:00,
2013-06-13 18:09:00,78.3,68.1,29.84,SSW,194,0.0,0.0,71,0.00,,---,0.00,VWS V14.01,2013-06-13 23:09:00,
2013-06-13 18:14:00,77.4,68.5,29.84,SSW,194,0.0,0.0,74,0.00,,---,0.00,VWS V14.01,2013-06-13 23:14:00,
2013-06-13 18:19:00,76.6,68.5,29.84,SSW,194,0.0,0.0,76,0.00,,---,0.00,VWS V14.01,2013-06-13 23:19:00,
2013-06-13 18:24:00,76.6,68.5,29.84,SSW,194,0.0,0.0,76,0.00,,---,0.00,VWS V14.01,2013-06-13 23:24:00,
2013-06-13 18:29:00,77.0,68.5,29.84,SSW,194,0.0,0.0,75,0.00,,---,0.00,VWS V14.01,2013-06-13 23:29:00,
2013-06-13 18:34:00,77.2,67.5,29.84,SSW,194,0.0,1.0,72,0.00,,---,0.00,VWS V14.01,2013-06-13 23:34:00,
2013-06-13 18:39:00,77.4,68.1,29.84,SSW,194,0.0,1.0,73,0.00,,---,0.00,VWS V14.01,2013-06-13 23:39:00,
2013-06-13 18:44:00,77.7,68.4,29.84,SSW,194,0.0,1.0,73,0.00,,---,0.00,VWS V14.01,2013-06-13 23:44:00,
2013-06-13 18:49:00,77.7,68.4,29.84,SSW,194,0.0,1.0,73,0.00,,---,0.00,VWS V14.01,2013-06-13 23:49:00,
2013-06-13 18:54:00,77.9,66.9,29.84,SSW,194,0.0,1.0,69,0.00,,---,0.00,VWS V14.01,2013-06-13 23:54:00,
2013-06-13 18:59:00,78.0,67.4,29.85,SSW,194,0.0,0.0,70,0.00,,---,0.00,VWS V14.01,2013-06-13 23:59:00,
2013-06-13 19:04:00,78.2,67.2,29.85,SSW,194,0.0,1.0,69,0.00,,---,0.00,VWS V14.01,2013-06-14 00:04:00,
2013-06-13 19:09:00,77.4,66.9,29.85,SSW,194,0.0,1.0,70,0.00,,---,0.00,VWS V14.01,2013-06-14 00:09:00,
2013-06-13 19:14:00,77.0,66.9,29.85,SSW,194,0.0,1.0,71,0.00,,---,0.00,VWS V14.01,2013-06-14 00:14:00,
2013-06-13 19:19:00,76.9,66.8,29.85,SSW,194,0.0,1.0,71,0.00,,---,0.00,VWS V14.01,2013-06-14 00:19:00,
2013-06-13 19:24:00,76.0,66.3,29.85,SSW,194,0.0,1.0,72,0.00,,---,0.00,VWS V14.01,2013-06-14 00:24:00,
2013-06-13 19:29:00,75.6,66.3,29.85,SSW,194,0.0,0.0,73,0.00,,---,0.00,VWS V14.01,2013-06-14 00:29:00,
2013-06-13 19:34:00,75.3,65.7,29.85,SSW,194,0.0,0.0,72,0.00,,---,0.00,VWS V14.01,2013-06-14 00:34:00,
2013-06-13 19:39:00,75.1,65.5,29.85,SSW,194,0.0,0.0,72,0.00,,---,0.00,VWS V14.01,2013-06-14 00:39:00,
2013-06-13 19:44:00,74.7,65.9,29.86,SSW,194,0.0,0.0,74,0.00,,---,0.00,VWS V14.01,2013-06-14 00:44:00,
2013-06-13 19:49:00,74.3,65.5,29.86,SSW,194,0.0,0.0,74,0.00,,---,0.00,VWS V14.01,2013-06-14 00:49:00,
2013-06-13 19:54:00,74.1,65.3,29.86,SSW,194,0.0,0.0,74,0.00,,---,0.00,VWS V14.01,2013-06-14 00:54:00,
2013-06-13 19:59:00,73.9,65.1,29.86,SSW,194,0.0,0.0,74,0.00,,---,0.00,VWS V14.01,2013-06-14 00:59:00,
2013-06-13 20:04:00,73.6,65.2,29.86,SSW,194,0.0,0.0,75,0.00,,---,0.00,VWS V14.01,2013-06-14 01:04:00,
2013-06-13 20:09:00,73.3,64.5,29.86,SSW,194,0.0,0.0,74,0.00,,---,0.00,VWS V14.01,2013-06-14 01:09:00,
2013-06-13 20:14:00,73.1,64.3,29.86,SSW,194,0.0,0.0,74,0.00,,---,0.00,VWS V14.01,2013-06-14 01:14:00,
2013-06-13 20:19:00,73.0,64.6,29.86,SSW,194,0.0,0.0,75,0.00,,---,0.00,VWS V14.01,2013-06-14 01:19:00,
2013-06-13 20:24:00,72.8,64.4,29.86,SSW,194,0.0,0.0,75,0.00,,---,0.00,VWS V14.01,2013-06-14 01:24:00,
2013-06-13 20:29:00,72.5,63.8,29.86,SSW,194,0.0,0.0,74,0.00,,---,0.00,VWS V14.01,2013-06-14 01:29:00,
2013-06-13 20:34:00,72.4,63.7,29.86,SSW,194,0.0,0.0,74,0.00,,---,0.00,VWS V14.01,2013-06-14 01:34:00,
2013-06-13 20:39:00,72.2,63.5,29.86,SSW,194,0.0,0.0,74,0.00,,---,0.00,VWS V14.01,2013-06-14 01:39:00,
2013-06-13 20:44:00,72.1,63.0,29.85,SSW,194,0.0,0.0,73,0.00,,---,0.00,VWS V14.01,2013-06-14 01:44:00,
2013-06-13 20:49:00,72.1,62.6,29.85,SSW,194,0.0,0.0,72,0.00,,---,0.00,VWS V14.01,2013-06-14 01:49:00,
2013-06-13 20:54:00,72.0,62.5,29.85,SSW,194,0.0,0.0,72,0.00,,---,0.00,VWS V14.01,2013-06-14 01:54:00,
2013-06-13 20:59:00,71.7,62.6,29.85,SSW,194,0.0,0.0,73,0.00,,---,0.00,VWS V14.01,2013-06-14 01:59:00,
2013-06-13 21:04:00,71.6,62.1,29.85,SSW,194,0.0,0.0,72,0.00,,---,0.00,VWS V14.01,2013-06-14 02:04:00,
2013-06-13 21:09:00,71.5,62.0,29.85,SSW,194,0.0,0.0,72,0.00,,---,0.00,VWS V14.01,2013-06-14 02:09:00,
2013-06-13 21:14:00,71.4,61.9,29.85,SSW,194,0.0,0.0,72,0.00,,---,0.00,VWS V14.01,2013-06-14 02:14:00,
2013-06-13 21:19:00,71.4,61.5,29.85,SSW,194,0.0,0.0,71,0.00,,---,0.00,VWS V14.01,2013-06-14 02:19:00,
2013-06-13 21:24:00,71.3,61.4,29.85,SSW,194,0.0,0.0,71,0.00,,---,0.00,VWS V14.01,2013-06-14 02:24:00,
2013-06-13 21:29:00,71.1,60.8,29.85,SSW,194,0.0,0.0,70,0.00,,---,0.00,VWS V14.01,2013-06-14 02:29:00,
2013-06-13 21:34:00,71.0,60.7,29.85,SSW,194,0.0,0.0,70,0.00,,---,0.00,VWS V14.01,2013-06-14 02:34:00,
2013-06-13 21:39:00,70.8,60.9,29.85,SSW,194,0.0,0.0,71,0.00,,---,0.00,VWS V14.01,2013-06-14 02:39:00,
2013-06-13 21:44:00,70.6,60.8,29.85,SSW,194,0.0,0.0,71,0.00,,---,0.00,VWS V14.01,2013-06-14 02:44:00,
2013-06-13 21:49:00,70.4,60.6,29.85,SSW,194,0.0,0.0,71,0.00,,---,0.00,VWS V14.01,2013-06-14 02:49:00,
2013-06-13 21:54:00,70.2,60.8,29.85,SSW,194,0.0,0.0,72,0.00,,---,0.00,VWS V14.01,2013-06-14 02:54:00,
2013-06-13 21:59:00,70.2,60.8,29.85,SSW,194,0.0,0.0,72,0.00,,---,0.00,VWS V14.01,2013-06-14 02:59:00,
2013-06-13 22:04:00,69.8,60.8,29.84,SSW,194,0.0,0.0,73,0.00,,---,0.00,VWS V14.01,2013-06-14 03:04:00,
2013-06-13 22:09:00,69.5,61.2,29.84,SSW,194,0.0,0.0,75,0.00,,---,0.00,VWS V14.01,2013-06-14 03:09:00,
2013-06-13 22:14:00,69.0,61.5,29.84,SSW,194,0.0,0.0,77,0.00,,---,0.00,VWS V14.01,2013-06-14 03:14:00,
2013-06-13 22:19:00,68.7,60.5,29.84,SSW,194,0.0,0.0,75,0.00,,---,0.00,VWS V14.01,2013-06-14 03:19:00,
2013-06-13 22:24:00,68.6,61.1,29.84,SSW,194,0.0,0.0,77,0.00,,---,0.00,VWS V14.01,2013-06-14 03:24:00,
2013-06-13 22:29:00,68.5,61.4,29.84,SSW,194,0.0,0.0,78,0.00,,---,0.00,VWS V14.01,2013-06-14 03:29:00,
2013-06-13 22:34:00,68.1,61.0,29.84,SSW,194,0.0,0.0,78,0.00,,---,0.00,VWS V14.01,2013-06-14 03:34:00,
2013-06-13 22:39:00,67.9,60.8,29.84,SSW,194,0.0,0.0,78,0.00,,---,0.00,VWS V14.01,2013-06-14 03:39:00,
2013-06-13 22:44:00,67.8,61.4,29.84,SSW,194,0.0,0.0,80,0.00,,---,0.00,VWS V14.01,2013-06-14 03:44:00,
2013-06-13 22:49:00,67.5,61.1,29.83,SSW,194,0.0,0.0,80,0.00,,---,0.00,VWS V14.01,2013-06-14 03:49:00,
2013-06-13 22:54:00,67.4,61.0,29.83,SSW,194,0.0,0.0,80,0.00,,---,0.00,VWS V14.01,2013-06-14 03:54:00,
2013-06-13 22:59:00,67.4,60.3,29.83,SSW,194,0.0,0.0,78,0.00,,---,0.00,VWS V14.01,2013-06-14 03:59:00,
2013-06-13 23:01:00,67.4,60.7,29.83,SSW,194,0.0,0.0,79,0.00,,---,0.00,VWS V14.01,2013-06-14 04:01:00,
2013-06-13 23:06:00,67.2,60.8,29.82,SSW,194,0.0,0.0,80,0.00,,---,0.00,VWS V14.01,2013-06-14 04:06:00,
2013-06-13 23:11:00,67.2,61.5,29.82,SSW,194,0.0,0.0,82,0.00,,---,0.00,VWS V14.01,2013-06-14 04:11:00,
2013-06-13 23:16:00,67.2,60.8,29.82,SSW,194,0.0,0.0,80,0.00,,---,0.00,VWS V14.01,2013-06-14 04:16:00,
2013-06-13 23:21:00,67.1,60.7,29.83,SSW,194,0.0,0.0,80,0.00,,---,0.00,VWS V14.01,2013-06-14 04:21:00,
2013-06-13 23:26:00,67.0,61.0,29.83,SSW,194,0.0,0.0,81,0.00,,---,0.00,VWS V14.01,2013-06-14 04:26:00,
2013-06-13 23:31:00,66.6,59.9,29.83,SSW,194,0.0,0.0,79,0.00,,---,0.00,VWS V14.01,2013-06-14 04:31:00,
2013-06-13 23:36:00,66.3,59.6,29.82,SSW,194,0.0,0.0,79,0.00,,---,0.00,VWS V14.01,2013-06-14 04:36:00,
2013-06-13 23:41:00,66.3,60.0,29.82,SSW,194,0.0,0.0,80,0.00,,---,0.00,VWS V14.01,2013-06-14 04:41:00,
2013-06-13 23:46:00,66.2,60.2,29.82,SSW,194,0.0,0.0,81,0.00,,---,0.00,VWS V14.01,2013-06-14 04:46:00,
2013-06-13 23:51:00,66.0,60.0,29.82,SSW,194,0.0,0.0,81,0.00,,---,0.00,VWS V14.01,2013-06-14 04:51:00,
2013-06-13 23:56:00,65.9,59.9,29.82,SSW,194,0.0,0.0,81,0.00,,---,0.00,VWS V14.01,2013-06-14 04:56:00,